This is the latest recevied weather packets stored in our database for station/object DH1FR-13. If no packets are shown the sender has not sent any weather packets the latest 10 day(s).
| Time | Temp. | Humidity | Pressure | Rain* | Wind** | Luminosity | Snow |
|---|---|---|---|---|---|---|---|
| 1787991600 | 17.78° C | 83% | 1017.8 hPa | 0 mm | 0 m/s | - | - |
| 1787991000 | 16.67° C | 85% | 1017.8 hPa | 0 mm | 0 m/s | - | - |
| 1787990401 | 16.67° C | 86% | 1017.9 hPa | 0 mm | 0 m/s | - | - |
| 1787989200 | 16.67° C | 86% | 1017.8 hPa | 0 mm | 0 m/s | - | - |
| 1787988600 | 16.67° C | 85% | 1017.5 hPa | 0 mm | 0 m/s | - | - |
| 1787988000 | 16.67° C | 87% | 1017.6 hPa | 0 mm | 0 m/s | - | - |
| 1787987400 | 16.67° C | 86% | 1017.5 hPa | 0 mm | 0 m/s | - | - |
| 1787986801 | 16.67° C | 86% | 1017.6 hPa | 0 mm | 0 m/s | - | - |
| 1787986200 | 16.11° C | 88% | 1017.6 hPa | 0 mm | 0 m/s | - | - |
| 1787985600 | 15.56° C | 89% | 1017.3 hPa | 0 mm | 0 m/s | - | - |
| 1787985000 | 15.56° C | 90% | 1017.3 hPa | 0 mm | 0 m/s | - | - |
| 1787984401 | 15.56° C | 91% | 1017.3 hPa | 0 mm | 0 m/s | - | - |
| 1787983800 | 14.44° C | 95% | 1017.3 hPa | 0 mm | 0 m/s | - | - |
| 1787983201 | 13.89° C | 96% | 1017.3 hPa | 0 mm | 0 m/s | - | - |
| 1787982600 | 13.33° C | 96% | 1017.3 hPa | 0 mm | 0 m/s | - | - |
| 1787982000 | 13.33° C | 97% | 1017.3 hPa | 0 mm | 0 m/s | - | - |
| 1787981401 | 12.78° C | 97% | 1017.3 hPa | 0 mm | 0 m/s | - | - |
| 1787980801 | 12.78° C | 97% | 1017.4 hPa | 0 mm | 0 m/s | - | - |
| 1787980200 | 12.22° C | 97% | 1017.1 hPa | 0 mm | 0 m/s | - | - |
| 1787979601 | 12.78° C | 97% | 1017.2 hPa | 0 mm | 0 m/s | - | - |
| 1787979000 | 12.78° C | 97% | 1017.3 hPa | 0 mm | 0 m/s | - | - |
| 1787978401 | 12.78° C | 96% | 1017.2 hPa | 0 mm | 0 m/s | - | - |
| 1787977801 | 12.78° C | 96% | 1017.2 hPa | 0 mm | 0 m/s | - | - |
| 1787977201 | 12.78° C | 96% | 1017.3 hPa | 0 mm | 0 m/s | - | - |
| 1787976632 | 12.78° C | 96% | 1017 hPa | 0 mm | 0 m/s | - | - |
* Rain latest hour (hover to see other rain measurements)
** Current wind speed in m/s (hover to see current wind gust speed)